Location: Tom
(33.0437°N, 96.9452°W)
Time: 07:00:11
(UTC-06:00)

Envisat - Pass Details

Date: 23 January 2019
Orbit: 764 x 766 km, 98.2° (Epoch: 16 February)

Event Time Altitude Azimuth Distance (km) Brightness Sun altitude
Rises 20:06:57 0° 194° (SSW) 3,216 6.5 -28.3°
Reaches altitude 10° 20:09:34 10° 207° (SSW) 2,294 5.8 -28.9°
Maximum altitude 20:13:48 27° 264° (W) 1,448 5.0 -29.7°
Drops below altitude 10° 20:18:04 10° 321° (NW) 2,306 5.8 -30.6°
Sets 20:20:43 0° 333° (NNW) 3,236 6.5 -31.2°
